Time,TemperatureF,DewpointF,PressureIn,WindDirection,WindDirectionDegrees,WindSpeedMPH,WindSpeedGustMPH,Humidity,HourlyPrecipIn,Conditions,Clouds,dailyrainin,SoftwareType,DateUTC
2013-06-18 00:02:00,60.0,53.0,29.96,SW,219,2.0,8.0,77,0.00,,,0.00,,2013-06-18 07:02:00,
2013-06-18 00:11:00,59.0,52.0,29.96,SW,220,0.0,4.0,78,0.00,,,0.00,,2013-06-18 07:11:00,
2013-06-18 00:22:00,59.0,52.0,29.96,SW,220,0.0,4.0,78,0.00,,,0.00,,2013-06-18 07:22:00,
2013-06-18 00:33:00,59.0,52.0,29.95,SW,217,2.0,7.0,79,0.00,,,0.00,,2013-06-18 07:33:00,
2013-06-18 00:42:00,58.0,52.0,29.95,SW,219,2.0,6.0,80,0.00,,,0.00,,2013-06-18 07:42:00,
2013-06-18 00:52:00,58.0,52.0,29.95,SW,219,2.0,6.0,80,0.00,,,0.00,,2013-06-18 07:52:00,
2013-06-18 01:01:00,58.0,52.0,29.96,SSW,200,0.0,4.0,80,0.00,,,0.00,,2013-06-18 08:01:00,
2013-06-18 01:11:00,58.0,52.0,29.95,SSW,206,0.0,2.0,80,0.00,,,0.00,,2013-06-18 08:11:00,
2013-06-18 01:23:00,58.0,52.0,29.95,SSW,206,0.0,2.0,80,0.00,,,0.00,,2013-06-18 08:23:00,
2013-06-18 01:32:00,58.0,52.0,29.95,SW,217,2.0,4.0,81,0.00,,,0.00,,2013-06-18 08:32:00,
2013-06-18 01:43:00,58.0,52.0,29.95,SW,217,2.0,4.0,81,0.00,,,0.00,,2013-06-18 08:43:00,
2013-06-18 01:52:00,58.0,53.0,29.95,SW,215,2.0,7.0,82,0.00,,,0.00,,2013-06-18 08:52:00,
2013-06-18 02:01:00,58.0,52.0,29.95,SW,217,1.0,7.0,81,0.00,,,0.00,,2013-06-18 09:01:00,
2013-06-18 02:11:00,58.0,52.0,29.95,SW,217,1.0,7.0,81,0.00,,,0.00,,2013-06-18 09:11:00,
2013-06-18 02:22:00,57.0,52.0,29.94,SSW,210,2.0,5.0,82,0.00,,,0.00,,2013-06-18 09:22:00,
2013-06-18 02:33:00,57.0,52.0,29.94,SSW,210,2.0,5.0,82,0.00,,,0.00,,2013-06-18 09:33:00,
2013-06-18 02:42:00,57.0,52.0,29.94,SW,223,1.0,4.0,83,0.00,,,0.00,,2013-06-18 09:42:00,
2013-06-18 02:53:00,57.0,52.0,29.94,SW,220,3.0,8.0,84,0.00,,,0.00,,2013-06-18 09:53:00,
2013-06-18 03:01:00,57.0,53.0,29.94,SW,223,2.0,6.0,85,0.00,,,0.00,,2013-06-18 10:01:00,
2013-06-18 03:11:00,57.0,53.0,29.94,SW,223,2.0,6.0,85,0.00,,,0.00,,2013-06-18 10:11:00,
2013-06-18 03:22:00,56.0,52.0,29.94,SSW,213,1.0,5.0,85,0.00,,,0.00,,2013-06-18 10:22:00,
2013-06-18 03:33:00,56.0,52.0,29.94,SW,223,3.0,8.0,86,0.00,,,0.00,,2013-06-18 10:33:00,
2013-06-18 03:42:00,56.0,52.0,29.94,SW,223,3.0,8.0,86,0.00,,,0.00,,2013-06-18 10:42:00,
2013-06-18 03:53:00,56.0,52.0,29.94,SW,218,1.0,7.0,86,0.00,,,0.00,,2013-06-18 10:53:00,
2013-06-18 04:02:00,56.0,52.0,29.94,SW,218,1.0,5.0,87,0.00,,,0.00,,2013-06-18 11:02:00,
2013-06-18 04:11:00,56.0,52.0,29.94,SW,218,1.0,5.0,87,0.00,,,0.00,,2013-06-18 11:11:00,
2013-06-18 04:22:00,56.0,52.0,29.94,SW,225,3.0,6.0,87,0.00,,,0.00,,2013-06-18 11:22:00,
2013-06-18 04:32:00,56.0,52.0,29.94,SW,225,3.0,6.0,87,0.00,,,0.00,,2013-06-18 11:32:00,
2013-06-18 04:42:00,55.0,52.0,29.94,SSW,205,1.0,4.0,88,0.00,,,0.00,,2013-06-18 11:42:00,
2013-06-18 04:52:00,55.0,52.0,29.94,SSW,205,1.0,4.0,88,0.00,,,0.00,,2013-06-18 11:52:00,
2013-06-18 05:01:00,55.0,52.0,29.94,SSW,205,1.0,4.0,88,0.00,,,0.00,,2013-06-18 12:01:00,
2013-06-18 05:11:00,55.0,52.0,29.94,SW,214,3.0,8.0,88,0.00,,,0.00,,2013-06-18 12:11:00,
2013-06-18 05:22:00,55.0,52.0,29.94,SW,228,2.0,6.0,88,0.00,,,0.00,,2013-06-18 12:22:00,
2013-06-18 05:32:00,55.0,52.0,29.94,SW,228,2.0,6.0,88,0.00,,,0.00,,2013-06-18 12:32:00,
2013-06-18 05:42:00,55.0,52.0,29.94,SSW,209,4.0,8.0,88,0.00,,,0.00,,2013-06-18 12:42:00,
2013-06-18 05:52:00,55.0,52.0,29.94,SSW,209,4.0,8.0,88,0.00,,,0.00,,2013-06-18 12:52:00,
2013-06-18 06:01:00,55.0,52.0,29.95,SW,226,3.0,7.0,88,0.00,,,0.00,,2013-06-18 13:01:00,
2013-06-18 06:11:00,55.0,52.0,29.95,SSW,212,3.0,7.0,89,0.00,,,0.00,,2013-06-18 13:11:00,
2013-06-18 06:22:00,55.0,52.0,29.94,SSW,212,3.0,6.0,89,0.00,,,0.00,,2013-06-18 13:22:00,
2013-06-18 06:33:00,55.0,52.0,29.94,SSW,212,3.0,6.0,89,0.00,,,0.00,,2013-06-18 13:33:00,
2013-06-18 06:43:00,55.0,52.0,29.95,SSW,194,4.0,7.0,88,0.00,,,0.00,,2013-06-18 13:43:00,
2013-06-18 06:52:00,55.0,52.0,29.95,SSW,194,4.0,7.0,88,0.00,,,0.00,,2013-06-18 13:52:00,
2013-06-18 07:02:00,56.0,52.0,29.95,SSW,208,3.0,6.0,87,0.00,,,0.00,,2013-06-18 14:02:00,
2013-06-18 07:11:00,56.0,52.0,29.95,SW,215,4.0,6.0,85,0.00,,,0.00,,2013-06-18 14:11:00,
2013-06-18 07:22:00,56.0,52.0,29.95,SW,215,4.0,6.0,85,0.00,,,0.00,,2013-06-18 14:22:00,
2013-06-18 07:33:00,57.0,52.0,29.95,SW,215,2.0,8.0,83,0.00,,,0.00,,2013-06-18 14:33:00,
2013-06-18 07:42:00,58.0,52.0,29.95,SW,227,3.0,7.0,81,0.00,,,0.00,,2013-06-18 14:42:00,
2013-06-18 07:52:00,58.0,52.0,29.95,SW,227,3.0,7.0,81,0.00,,,0.00,,2013-06-18 14:52:00,
2013-06-18 08:02:00,59.0,52.0,29.95,SW,221,3.0,7.0,78,0.00,,,0.00,,2013-06-18 15:02:00,
2013-06-18 08:11:00,60.0,52.0,29.95,WSW,237,4.0,9.0,75,0.00,,,0.00,,2013-06-18 15:11:00,
2013-06-18 08:22:00,60.0,52.0,29.95,WSW,237,4.0,9.0,75,0.00,,,0.00,,2013-06-18 15:22:00,
2013-06-18 08:33:00,60.0,51.0,29.95,SW,216,5.0,8.0,72,0.00,,,0.00,,2013-06-18 15:33:00,
2013-06-18 08:42:00,61.0,51.0,29.96,SSW,209,5.0,8.0,70,0.00,,,0.00,,2013-06-18 15:42:00,
2013-06-18 08:52:00,61.0,51.0,29.96,SSW,209,5.0,8.0,70,0.00,,,0.00,,2013-06-18 15:52:00,
2013-06-18 09:01:00,63.0,52.0,29.96,SW,222,4.0,9.0,68,0.00,,,0.00,,2013-06-18 16:01:00,
2013-06-18 09:11:00,63.0,52.0,29.96,SW,222,4.0,9.0,68,0.00,,,0.00,,2013-06-18 16:11:00,
2013-06-18 09:22:00,64.0,52.0,29.96,WSW,250,4.0,8.0,66,0.00,,,0.00,,2013-06-18 16:22:00,
2013-06-18 09:33:00,64.0,52.0,29.96,SW,236,4.0,9.0,65,0.00,,,0.00,,2013-06-18 16:33:00,
2013-06-18 09:43:00,65.0,52.0,29.96,WSW,243,2.0,7.0,63,0.00,,,0.00,,2013-06-18 16:43:00,
2013-06-18 09:52:00,65.0,52.0,29.96,WSW,243,2.0,7.0,63,0.00,,,0.00,,2013-06-18 16:52:00,
2013-06-18 10:01:00,66.0,52.0,29.96,WSW,241,3.0,7.0,60,0.00,,,0.00,,2013-06-18 17:01:00,
2013-06-18 10:11:00,66.0,52.0,29.96,WSW,241,3.0,7.0,60,0.00,,,0.00,,2013-06-18 17:11:00,
2013-06-18 10:22:00,67.0,52.0,29.95,WSW,256,3.0,8.0,59,0.00,,,0.00,,2013-06-18 17:22:00,
2013-06-18 10:33:00,68.0,51.0,29.95,SSW,212,4.0,8.0,55,0.00,,,0.00,,2013-06-18 17:33:00,
2013-06-18 10:43:00,68.0,51.0,29.95,SSW,212,4.0,8.0,55,0.00,,,0.00,,2013-06-18 17:43:00,
2013-06-18 10:53:00,70.0,53.0,29.95,SW,235,3.0,10.0,54,0.00,,,0.00,,2013-06-18 17:53:00,
2013-06-18 11:01:00,71.0,52.0,29.95,West,267,1.0,9.0,52,0.00,,,0.00,,2013-06-18 18:01:00,
2013-06-18 11:11:00,71.0,52.0,29.95,West,267,1.0,9.0,52,0.00,,,0.00,,2013-06-18 18:11:00,
2013-06-18 11:22:00,72.0,53.0,29.94,SW,216,2.0,8.0,51,0.00,,,0.00,,2013-06-18 18:22:00,
2013-06-18 11:33:00,72.0,52.0,29.94,WSW,256,5.0,10.0,50,0.00,,,0.00,,2013-06-18 18:33:00,
2013-06-18 11:42:00,72.0,52.0,29.94,WSW,256,5.0,10.0,50,0.00,,,0.00,,2013-06-18 18:42:00,
2013-06-18 11:53:00,73.0,52.0,29.94,SW,221,4.0,9.0,47,0.00,,,0.00,,2013-06-18 18:53:00,
2013-06-18 12:01:00,73.0,51.0,29.94,WSW,244,1.0,8.0,46,0.00,,,0.00,,2013-06-18 19:01:00,
2013-06-18 12:11:00,73.0,51.0,29.94,WSW,244,1.0,8.0,46,0.00,,,0.00,,2013-06-18 19:11:00,
2013-06-18 12:22:00,73.0,51.0,29.93,West,262,1.0,7.0,46,0.00,,,0.00,,2013-06-18 19:22:00,
2013-06-18 12:33:00,74.0,51.0,29.93,WNW,293,1.0,4.0,44,0.00,,,0.00,,2013-06-18 19:33:00,
2013-06-18 12:42:00,74.0,51.0,29.93,WNW,293,1.0,4.0,44,0.00,,,0.00,,2013-06-18 19:42:00,
2013-06-18 12:52:00,74.0,51.0,29.93,WNW,293,1.0,4.0,44,0.00,,,0.00,,2013-06-18 19:52:00,
2013-06-18 13:01:00,75.0,51.0,29.93,West,268,1.0,6.0,43,0.00,,,0.00,,2013-06-18 20:01:00,
2013-06-18 13:11:00,76.0,51.0,29.93,NW,312,1.0,11.0,42,0.00,,,0.00,,2013-06-18 20:11:00,
2013-06-18 13:22:00,76.0,49.0,29.92,SW,219,5.0,10.0,39,0.00,,,0.00,,2013-06-18 20:22:00,
2013-06-18 13:33:00,76.0,49.0,29.92,SW,219,5.0,10.0,39,0.00,,,0.00,,2013-06-18 20:33:00,
2013-06-18 13:43:00,77.0,49.0,29.92,West,269,1.0,10.0,38,0.00,,,0.00,,2013-06-18 20:43:00,
2013-06-18 13:52:00,77.0,49.0,29.92,West,269,1.0,10.0,38,0.00,,,0.00,,2013-06-18 20:52:00,
2013-06-18 14:01:00,78.0,49.0,29.92,WSW,247,7.0,11.0,36,0.00,,,0.00,,2013-06-18 21:01:00,
2013-06-18 14:11:00,78.0,49.0,29.91,SW,227,5.0,11.0,36,0.00,,,0.00,,2013-06-18 21:11:00,
2013-06-18 14:22:00,79.0,49.0,29.91,West,263,5.0,15.0,35,0.00,,,0.00,,2013-06-18 21:22:00,
2013-06-18 14:33:00,79.0,49.0,29.91,West,263,5.0,15.0,35,0.00,,,0.00,,2013-06-18 21:33:00,
2013-06-18 14:43:00,79.0,48.0,29.90,WSW,252,6.0,12.0,34,0.00,,,0.00,,2013-06-18 21:43:00,
2013-06-18 14:52:00,79.0,47.0,29.90,WSW,252,4.0,15.0,33,0.00,,,0.00,,2013-06-18 21:52:00,
2013-06-18 15:01:00,79.0,47.0,29.90,WSW,252,4.0,15.0,33,0.00,,,0.00,,2013-06-18 22:01:00,
2013-06-18 15:11:00,79.0,48.0,29.90,SW,230,8.0,17.0,34,0.00,,,0.00,,2013-06-18 22:11:00,
2013-06-18 15:22:00,79.0,48.0,29.90,SW,230,8.0,17.0,34,0.00,,,0.00,,2013-06-18 22:22:00,
2013-06-18 15:34:00,79.0,47.0,29.90,West,267,3.0,15.0,33,0.00,,,0.00,,2013-06-18 22:34:00,
2013-06-18 15:42:00,78.0,47.0,29.90,West,261,11.0,16.0,34,0.00,,,0.00,,2013-06-18 22:42:00,
2013-06-18 15:53:00,78.0,47.0,29.90,West,261,11.0,16.0,34,0.00,,,0.00,,2013-06-18 22:53:00,
2013-06-18 16:01:00,77.0,47.0,29.90,West,259,7.0,16.0,35,0.00,,,0.00,,2013-06-18 23:01:00,
2013-06-18 16:11:00,79.0,48.0,29.89,WSW,238,6.0,13.0,34,0.00,,,0.00,,2013-06-18 23:11:00,
2013-06-18 16:23:00,79.0,48.0,29.89,WSW,238,6.0,13.0,34,0.00,,,0.00,,2013-06-18 23:23:00,
2013-06-18 16:35:00,78.0,47.0,29.89,SW,223,10.0,15.0,34,0.00,,,0.00,,2013-06-18 23:35:00,
2013-06-18 16:44:00,77.0,47.0,29.88,WSW,248,8.0,17.0,35,0.00,,,0.00,,2013-06-18 23:44:00,
2013-06-18 16:53:00,77.0,47.0,29.88,WSW,248,8.0,17.0,35,0.00,,,0.00,,2013-06-18 23:53:00,
2013-06-18 17:01:00,77.0,47.0,29.88,SW,226,8.0,17.0,35,0.00,,,0.00,,2013-06-19 00:01:00,
2013-06-18 17:11:00,76.0,46.0,29.87,West,261,11.0,16.0,35,0.00,,,0.00,,2013-06-19 00:11:00,
2013-06-18 17:22:00,76.0,46.0,29.87,West,261,11.0,16.0,35,0.00,,,0.00,,2013-06-19 00:22:00,
2013-06-18 17:33:00,75.0,47.0,29.88,WSW,237,10.0,17.0,37,0.00,,,0.00,,2013-06-19 00:33:00,
2013-06-18 17:43:00,75.0,48.0,29.87,West,269,10.0,17.0,39,0.00,,,0.00,,2013-06-19 00:43:00,
2013-06-18 17:53:00,75.0,48.0,29.87,West,269,10.0,17.0,39,0.00,,,0.00,,2013-06-19 00:53:00,
2013-06-18 18:01:00,75.0,48.0,29.87,West,269,10.0,17.0,39,0.00,,,0.00,,2013-06-19 01:01:00,
2013-06-18 18:11:00,74.0,49.0,29.87,WSW,256,8.0,15.0,41,0.00,,,0.00,,2013-06-19 01:11:00,
2013-06-18 18:22:00,74.0,49.0,29.87,WSW,256,8.0,15.0,41,0.00,,,0.00,,2013-06-19 01:22:00,
2013-06-18 18:32:00,71.0,48.0,29.87,WSW,246,10.0,21.0,44,0.00,,,0.00,,2013-06-19 01:32:00,
2013-06-18 18:42:00,71.0,48.0,29.87,WSW,246,10.0,21.0,44,0.00,,,0.00,,2013-06-19 01:42:00,
2013-06-18 18:53:00,71.0,48.0,29.87,WSW,246,10.0,21.0,44,0.00,,,0.00,,2013-06-19 01:53:00,
2013-06-18 19:01:00,71.0,48.0,29.87,WSW,246,10.0,21.0,44,0.00,,,0.00,,2013-06-19 02:01:00,
2013-06-18 19:11:00,71.0,48.0,29.87,WSW,246,10.0,21.0,44,0.00,,,0.00,,2013-06-19 02:11:00,
2013-06-18 19:32:00,71.0,49.0,29.87,WSW,246,8.0,16.0,45,0.00,,,0.00,,2013-06-19 02:32:00,
2013-06-18 19:42:00,69.0,51.0,29.87,SW,235,6.0,13.0,52,0.00,,,0.00,,2013-06-19 02:42:00,
2013-06-18 19:52:00,69.0,51.0,29.87,SW,235,6.0,13.0,52,0.00,,,0.00,,2013-06-19 02:52:00,
2013-06-18 20:01:00,69.0,51.0,29.87,SW,235,6.0,13.0,52,0.00,,,0.00,,2013-06-19 03:01:00,
2013-06-18 20:11:00,66.0,49.0,29.88,WSW,240,7.0,14.0,54,0.00,,,0.00,,2013-06-19 03:11:00,
2013-06-18 20:21:00,66.0,49.0,29.88,WSW,240,7.0,14.0,54,0.00,,,0.00,,2013-06-19 03:21:00,
2013-06-18 20:32:00,65.0,49.0,29.88,WSW,254,6.0,15.0,56,0.00,,,0.00,,2013-06-19 03:32:00,
2013-06-18 20:42:00,65.0,49.0,29.88,WSW,254,6.0,15.0,56,0.00,,,0.00,,2013-06-19 03:42:00,
2013-06-18 20:52:00,63.0,48.0,29.88,WSW,252,8.0,13.0,59,0.00,,,0.00,,2013-06-19 03:52:00,
2013-06-18 21:01:00,63.0,48.0,29.88,WSW,252,8.0,13.0,59,0.00,,,0.00,,2013-06-19 04:01:00,
2013-06-18 21:11:00,63.0,49.0,29.88,WSW,257,6.0,12.0,60,0.00,,,0.00,,2013-06-19 04:11:00,
2013-06-18 21:22:00,62.0,49.0,29.89,West,263,6.0,10.0,62,0.00,,,0.00,,2013-06-19 04:22:00,
2013-06-18 21:32:00,62.0,49.0,29.89,West,263,6.0,10.0,62,0.00,,,0.00,,2013-06-19 04:32:00,
2013-06-18 21:42:00,62.0,49.0,29.89,West,263,6.0,10.0,62,0.00,,,0.00,,2013-06-19 04:42:00,
2013-06-18 21:52:00,62.0,49.0,29.89,West,263,6.0,10.0,62,0.00,,,0.00,,2013-06-19 04:52:00,
2013-06-18 22:01:00,62.0,49.0,29.89,West,263,6.0,10.0,62,0.00,,,0.00,,2013-06-19 05:01:00,
2013-06-18 22:11:00,61.0,49.0,29.90,West,268,7.0,11.0,65,0.00,,,0.00,,2013-06-19 05:11:00,
2013-06-18 22:22:00,60.0,49.0,29.91,WSW,241,4.0,9.0,67,0.00,,,0.00,,2013-06-19 05:22:00,
2013-06-18 22:32:00,60.0,49.0,29.91,WSW,241,4.0,9.0,67,0.00,,,0.00,,2013-06-19 05:32:00,
2013-06-18 22:42:00,60.0,49.0,29.92,SW,219,1.0,10.0,68,0.00,,,0.00,,2013-06-19 05:42:00,
2013-06-18 22:52:00,59.0,49.0,29.92,WSW,241,0.0,7.0,69,0.00,,,0.00,,2013-06-19 05:52:00,
2013-06-18 23:01:00,59.0,49.0,29.92,WSW,241,0.0,7.0,69,0.00,,,0.00,,2013-06-19 06:01:00,
2013-06-18 23:11:00,57.0,48.0,29.92,WSW,241,0.0,1.0,72,0.00,,,0.00,,2013-06-19 06:11:00,
2013-06-18 23:21:00,57.0,48.0,29.92,WSW,241,0.0,1.0,72,0.00,,,0.00,,2013-06-19 06:21:00,
2013-06-18 23:33:00,56.0,48.0,29.92,WSW,241,0.0,1.0,74,0.00,,,0.00,,2013-06-19 06:33:00,
2013-06-18 23:42:00,56.0,49.0,29.92,South,190,0.0,1.0,76,0.00,,,0.00,,2013-06-19 06:42:00,
2013-06-18 23:52:00,56.0,49.0,29.92,South,190,0.0,1.0,76,0.00,,,0.00,,2013-06-19 06:52:00,